Powrót do katalogu

CZ-2D R/B

AktywnySSO
NORAD 41858·ROCKET BODY·🇨🇳 China

Wystrzelony Nov 11, 2016 z Jiuquan Satellite Launch Center

Loading…

Następne Przeloty (najbliższe 24 godziny)

TLE

ŚwieżeSource: Space-Track

Epoka: Sep 14, 2026, 23:02 UTC

1 41858U 16068B   26257.96005787  .00000075  00000-0  40150-4 0  9997
2 41858  98.6344 263.3456 0031815 273.0505  86.7041 14.37180794515866

Śledź CZ-2D R/B w czasie rzeczywistym z AllMySat

Download on the App Store